Home > Weather > Viana do Castelo > Past weeks

Flag for Portugal Past Weather in Viana do Castelo, Portugal — Yesterday and Last 2 Weeks

Now
59 °F

Partly cloudy.


Feels Like: 58 °F
Forecast: 55 / 66 °F
Wind: 6 mph from Southwest

Location: Porto / Pedras Rubras

Current Time: May 25, 2016 at 2:37:33 AM

Latest Report: May 25, 2016 at 2:00 AM


Visibility: N/A

Pressure: 29.83 "Hg

Humidity: 94%

Dew Point: 57 °F

Location of Viana do CasteloLocation

Past Weather in Viana do Castelo — Graph

°F

Viana do Castelo Temperature Yesterday

Maximum temperature yesterday: 66 °F (at 3:30 PM)
Minimum temperature yesterday: 55 °F (at 8:00 AM)
Average temperature yesterday: 60 °F

High & Low Weather Summary for the Past Weeks

 TemperatureHumidityPressure
High73 °F (May 23, 1:00 PM)100% (May 12, 12:00 AM)30.27 "Hg (May 12, 12:00 AM)
Low48 °F (May 23, 2:30 AM)31% (May 23, 1:00 PM)29.53 "Hg (May 10, 2:30 PM)
Average58 °F86%30.01 "Hg
* Reported May 10 1:00 AM — May 25 1:30 AM, Viana do Castelo, Weather by CustomWeather, © 2016

Note: Actual official high and low records may vary slightly from our data, if they occured in-between our weather recording intervals... More about our weather records

Advertising

Viana do Castelo Weather History for the Previous 24 Hours

Scroll right to see more
 ConditionsComfort  
Time TempWeatherWind HumidityBarometerVisibility
1:30 AM
Wed, May 25
59 °FPassing clouds.7 mph94%29.83 "HgN/A
1:00 AM59 °FPartly cloudy.7 mph94%29.83 "HgN/A
12:30 AM59 °FPartly cloudy.7 mph94%29.83 "HgN/A
12:00 AM59 °FPartly cloudy.8 mph94%29.83 "HgN/A
11:30 PM
Tue, May 24
59 °FPartly cloudy.8 mph94%29.83 "HgN/A
11:00 PM59 °FSprinkles. Partly cloudy.9 mph94%29.83 "Hg5 mi
10:30 PM59 °FPassing clouds.8 mph94%29.86 "HgN/A
10:00 PM59 °FPartly cloudy.8 mph94%29.83 "HgN/A
9:30 PM59 °FScattered clouds.7 mph94%29.83 "HgN/A
9:00 PM59 °FBroken clouds.8 mph94%29.83 "HgN/A
8:30 PM61 °FBroken clouds.9 mph94%29.83 "Hg5 mi
8:00 PM61 °FScattered clouds.12 mph88%29.83 "HgN/A
7:30 PM61 °FBroken clouds.12 mph88%29.86 "HgN/A
7:00 PM61 °FSprinkles. Broken clouds.14 mph94%29.83 "Hg5 mi
6:30 PM63 °FBroken clouds.12 mph88%29.86 "HgN/A
6:00 PM63 °FBroken clouds.13 mph83%29.86 "HgN/A
5:30 PM63 °FBroken clouds.13 mph88%29.86 "HgN/A
5:00 PM64 °FBroken clouds.13 mph83%29.86 "HgN/A
4:30 PM63 °FBroken clouds.14 mph88%29.86 "HgN/A
4:00 PM64 °FBroken clouds.15 mph83%29.86 "HgN/A
3:30 PM66 °FBroken clouds.13 mph83%29.86 "HgN/A
3:00 PM64 °FBroken clouds.15 mph83%29.86 "HgN/A
2:30 PM64 °FBroken clouds.14 mph88%29.86 "HgN/A
2:00 PM64 °FBroken clouds.15 mph88%29.86 "HgN/A
1:30 PM63 °FSprinkles. Broken clouds.15 mph88%29.86 "Hg6 mi
1:00 PM63 °FPartly sunny.13 mph88%29.86 "HgN/A
12:30 PM63 °FBroken clouds.14 mph94%29.86 "HgN/A
12:00 PM61 °FPartly sunny.15 mph94%29.86 "HgN/A
11:30 AM59 °FPartly sunny.16 mph100%29.86 "HgN/A
11:00 AM59 °FPartly sunny.15 mph94%29.86 "Hg4 mi
10:30 AM59 °FPartly sunny.15 mph94%29.83 "Hg4 mi
10:00 AM57 °FLight rain. Partly sunny.10 mph94%29.83 "Hg4 mi
9:30 AM55 °FLight rain. Fog.12 mph100%29.86 "Hg1 mi
9:00 AM55 °FLight rain. Fog.10 mph100%29.86 "Hg2 mi
8:30 AM57 °FLight rain. Fog.13 mph94%29.86 "Hg3 mi
8:00 AM55 °FLight rain. Broken clouds.10 mph94%29.86 "Hg4 mi
7:30 AM57 °FLight rain. Broken clouds.10 mph88%29.86 "Hg5 mi
7:00 AM57 °FSprinkles. Passing clouds.13 mph88%29.86 "HgN/A
6:30 AM57 °FSprinkles. Passing clouds.12 mph88%29.89 "HgN/A
6:00 AM59 °FPassing clouds.13 mph82%29.86 "HgN/A
5:30 AM59 °FPassing clouds.12 mph88%29.89 "HgN/A
5:00 AM59 °FPassing clouds.10 mph94%29.89 "HgN/A
4:30 AM59 °FClear.8 mph88%29.89 "Hg10 mi
4:00 AM61 °FClear.12 mph77%29.89 "Hg10 mi
3:30 AM63 °FClear.10 mph68%29.89 "Hg10 mi
3:00 AM61 °FClear.7 mph63%29.86 "Hg10 mi
2:30 AM63 °FClear.9 mph56%29.89 "Hg10 mi
2:00 AM63 °FClear.6 mph64%29.89 "Hg10 mi
Weather by CustomWeather, © 2016

See weather overviewHow to use our weather pages